Flag for U.S.A. Weather past 2 weeks in Oklahoma City, Oklahoma, U.S.A.

Now
62 °F

Passing clouds.


Feels Like: 62 °F
Forecast: 61 / 72 °F
Wind: 14 mph from North

Location: Will Rogers World Airport

Current Time: May 30, 2015 at 6:30:20 AM

Latest Report: May 30, 2015 at 5:52 AM


Visibility: 10 mi

Pressure: 30.05 "Hg

Humidity: 83%

Dew point: 57 °F

Location of Oklahoma CityLocation

Historic Weather in Oklahoma City — Graph

°F

Oklahoma City temperature yesterday

Maximum temperature yesterday: 79 °F (at 5:52 PM)
Minimum temperature yesterday: 64 °F (at 6:52 AM)
Average temperature yesterday: 70 °F

Past Weeks' High & Low Weather Summary

 TemperatureHumidityPressure
High88 °F (May 18, 4:52 PM)100% (May 22, 8:54 AM)30.28 "Hg (May 22, 8:54 AM)
Low50 °F (May 21, 4:52 AM)31% (May 17, 3:52 PM)29.65 "Hg (May 16, 5:52 PM)
Average67 °F80%29.96 "Hg
* Reported May 15 5:52 AM — May 30 5:04 AM, Oklahoma City, Weather by CustomWeather, © 2015

Note: Actual official high and low records may vary slightly from our data, if they occured in-between our weather recording intervals... More about our weather records

Advertising

Oklahoma City weather history for previous 24 hours

 ConditionsComfort  
Time TempWeatherWind HumidityBarometerVisibility
5:04 AM
Sat, May 30
67 °FMostly cloudy.16 mph90%30.04 "Hg10 mi
4:52 AM67 °FPartly cloudy.8 mph93%30.01 "Hg10 mi
3:52 AM62 °FFog.3 mph96%29.98 "Hg3 mi
2:52 AM66 °FPassing clouds.No wind90%29.95 "Hg10 mi
1:52 AM66 °FPassing clouds.No wind90%29.97 "Hg10 mi
12:52 AM67 °FPassing clouds.No wind90%29.98 "Hg10 mi
11:52 PM
Fri, May 29
66 °FPassing clouds.3 mph93%29.97 "Hg10 mi
10:52 PM67 °FPassing clouds.No wind90%29.96 "Hg10 mi
9:52 PM68 °FPassing clouds.3 mph87%29.94 "Hg10 mi
8:52 PM70 °FScattered clouds.6 mph84%29.92 "Hg10 mi
7:52 PM74 °FPartly sunny.8 mph74%29.91 "Hg10 mi
6:52 PM78 °FPartly sunny.5 mph58%29.89 "Hg10 mi
5:52 PM79 °FMore clouds than sun.5 mph54%29.89 "Hg10 mi
4:52 PM78 °FMostly cloudy.3 mph58%29.89 "Hg10 mi
3:52 PM78 °FMostly cloudy.8 mph56%29.90 "Hg10 mi
2:52 PM78 °FBroken clouds.7 mph60%29.90 "Hg10 mi
1:52 PM74 °FCloudy.No wind67%29.93 "Hg10 mi
12:52 PM72 °FMore clouds than sun.5 mph71%29.93 "Hg10 mi
11:52 AM71 °FCloudy.3 mph73%29.95 "Hg10 mi
10:52 AM71 °FOvercast.No wind73%29.94 "Hg10 mi
9:52 AM69 °FBroken clouds.7 mph81%29.93 "Hg10 mi
8:52 AM68 °FBroken clouds.6 mph84%29.93 "Hg10 mi
7:52 AM65 °FBroken clouds.No wind94%29.93 "Hg10 mi
6:52 AM64 °FLight rain. Mostly cloudy.6 mph94%29.93 "Hg10 mi
Weather by CustomWeather, © 2015

See weather overviewHow to use our weather pages